Regional Weather Roundup
Issued by NWS

Home | Current Version | Previous Version | Graphics & Text | Print | Product List | Glossary On
Versions: 1 2 3 4 5 6 7 8 9 10 11 12 13 14 15 16 17 18 19 20 21 22 23 24 25 26 27 28 29 30 31 32 33 34 35 36 37 38 39 40 41 42 43 44 45 46 47 48 49 50
000
ASUS44 KMEG 260100
RWRTN
TENNESSEE HOURLY STATE WEATHER ROUNDUP
NATIONAL WEATHER SERVICE MEMPHIS TN
800 PM CDT THU MAY 25 2017

TNZ002-004-019-021-049-052-054-088>092-260200-
WEST TENNESSEE

CITY           SKY/WX    TMP DP  RH WIND       PRES   REMARKS
MEMPHIS INTL   PTCLDY    71  55  56 S8        29.80R
NWS MEMPHIS      N/A     72 N/A N/A MISG        N/A
JACKSON        CLEAR     69  54  58 S5        29.81R
DYERSBURG        N/A    N/A N/A N/A MISG        N/A
$$

TNZ008-025-027-028-033-062-065-066-260200-
NORTH MIDDLE TENNESSEE

CITY           SKY/WX    TMP DP  RH WIND       PRES   REMARKS
NASHVILLE      PTCLDY    69  51  52 SW3       29.81R
CLARKSVILLE    CLEAR     68  51  54 SW6       29.79R
SMYRNA         CLEAR     66  52  60 SW7       29.82R
CROSSVILLE     CLOUDY    61  52  72 W5        29.85R
$$

TNZ061-075-076-078-094-096-097-260200-
SOUTH MIDDLE TENNESSEE

CITY           SKY/WX    TMP DP  RH WIND       PRES   REMARKS
TULLAHOMA      CLEAR     63  52  67 SW3       29.85R
WINCHESTER     CLEAR     64  52  63 CALM        N/A
$$

TNZ017-018-042-046-047-260200-
NORTHEAST TENNESSEE

CITY           SKY/WX    TMP DP  RH WIND       PRES   REMARKS
TRI CITIES     CLOUDY    58  55  90 SW5       29.78R
$$

TNZ012-013-036-069-073-074-260200-
CENTRAL EAST TENNESSEE

CITY           SKY/WX    TMP DP  RH WIND       PRES   REMARKS
KNOXVILLE      PTCLDY    61  52  72 S8        29.80R
OAK RIDGE      CLEAR     64  53  67 VRB3      29.81R
GATLINBURG     PTCLDY    63  52  67 SW8       29.81R
$$

TNZ083-085-099-260200-
SOUTHEAST TENNESSEE

CITY           SKY/WX    TMP DP  RH WIND       PRES   REMARKS
CHATTANOOGA    PTCLDY    69  50  50 SW5       29.83R
$$

SKY/WX REPORTED AS FAIR MEANS FEW OR NO CLOUDS BELOW
12 THOUSAND FEET.




USA.gov is the U.S. government's official web portal to all federal, state and local government web resources and services.